Spokane Felts, WA
on Sunday, December 9, 2012

Sunday
Previous Day Next Day
Daily Summary
 ActualAverageRecord
Temperature
Mean Temperature °F 30°F  
Max Temperature 32°F 36°F 50°F (2014)
Min Temperature 19°F 25°F 14°F (2013)
Degree Days
Heating Degree Days 39 35  
Month to date heating degree days 188 306  
Since 1 July heating degree days 1461 1880  
Cooling Degree Days 0 0  
Month to date cooling degree days 0 0  
Year to date cooling degree days 509 406  
Moisture
Dew Point 23°F   
Average Humidity 84    
Maximum Humidity 92    
Minimum Humidity 75    
Precipitation
Precipitation T in 0.09 in 0.39 in (2010)
Month to date precipitation 0.47 0.77  
Year to date precipitation 19.23 15.99  
Wind
Wind Speed 1 mph   
Max Wind Speed 7 mph   
Max Gust Speed 9 mph   
Visibility 6 miles   
Events Snow   

Key: T is trace of precipitation, MM is missing value
Source: NWS Daily Summary
Time(PST)TemperatureDew PointHumidity Pressure Visibility Wind DirectionWind SpeedGust SpeedPrecipitationEvents Conditions
12:53 AM 23.0°F 19.0°F 85% 30.35 in 10.0 miles Calm Calm - N/A   Clear
1:53 AM 21.0°F 16.0°F 81% 30.38 in 9.0 miles Calm Calm - N/A   Clear
2:53 AM 21.9°F 18.0°F 85% 30.39 in 10.0 miles Calm Calm - N/A   Clear
3:53 AM 19.9°F 16.0°F 85% 30.41 in 9.0 miles Calm Calm - N/A   Clear
4:53 AM 19.9°F 16.0°F 85% 30.43 in 9.0 miles Calm Calm - N/A   Clear
5:53 AM 21.0°F 16.0°F 81% 30.44 in 10.0 miles Calm Calm - N/A   Clear
6:53 AM 19.9°F 16.0°F 85% 30.45 in 10.0 miles Calm Calm - N/A   Partly Cloudy
7:53 AM 21.0°F 17.1°F 85% 30.46 in 10.0 miles Calm Calm - N/A   Mostly Cloudy
8:53 AM 21.9°F 18.0°F 85% 30.45 in 8.0 miles Calm Calm - N/A   Scattered Clouds
9:53 AM 25.0°F 19.0°F 78% 30.45 in 10.0 miles Calm Calm - N/A   Mostly Cloudy
10:00 AM 24.8°F 19.4°F 80% 30.39 in 10.0 miles East 3.5 mph - N/A   Overcast
10:53 AM 26.1°F 19.9°F 78% 30.45 in 10.0 miles Calm Calm - N/A   Overcast
11:13 AM 26.6°F 19.4°F 74% 30.37 in 1.8 miles Calm Calm - 0.00 in Snow Light Snow
11:53 AM 27.0°F 21.9°F 81% 30.41 in 1.8 miles ENE 3.5 mph - 0.00 in Snow Light Snow
12:02 PM 26.6°F 21.2°F 80% 30.34 in 2.0 miles NE 3.5 mph - 0.00 in Snow Light Snow
12:13 PM 28.4°F 23.0°F 80% 30.33 in 5.0 miles ENE 3.5 mph - 0.00 in Snow Light Snow
12:51 PM 28.4°F 24.8°F 86% 30.32 in 3.0 miles Calm Calm - 0.00 in Snow Light Snow
12:53 PM 28.9°F 24.1°F 82% 30.39 in 3.0 miles Variable 3.5 mph - 0.00 in Snow Light Snow
1:53 PM 30.0°F 24.1°F 79% 30.37 in 3.0 miles Calm Calm - 0.00 in   Overcast
2:53 PM 30.0°F 25.0°F 82% 30.36 in 9.0 miles Calm Calm - N/A   Overcast
3:53 PM 30.0°F 25.0°F 82% 30.34 in 7.0 miles NE 3.5 mph - 0.00 in Snow Light Snow
4:53 PM 32.0°F 26.1°F 79% 30.31 in 10.0 miles SW 4.6 mph - 0.00 in   Overcast
5:53 PM 32.0°F 26.1°F 79% 30.30 in 10.0 miles SSW 4.6 mph - N/A   Overcast
6:53 PM 32.0°F 27.0°F 82% 30.30 in 5.0 miles Calm Calm - 0.00 in Snow Light Snow
7:44 PM 30.2°F 26.6°F 86% 30.20 in 2.0 miles ENE 4.6 mph - 0.00 in Snow Light Snow
7:53 PM 30.9°F 26.1°F 82% 30.27 in 4.0 miles ENE 4.6 mph - 0.00 in Snow Light Snow
8:06 PM 30.2°F 26.6°F 86% 30.20 in 2.5 miles ENE 3.5 mph - 0.00 in Snow Light Snow
8:17 PM 30.2°F 26.6°F 86% 30.19 in 3.0 miles East 4.6 mph - 0.00 in Snow Light Snow
8:24 PM 30.2°F 26.6°F 86% 30.19 in 4.0 miles East 3.5 mph - 0.00 in   Overcast
8:35 PM 30.2°F 26.6°F 86% 30.19 in 1.8 miles ESE 3.5 mph - 0.00 in Snow Light Snow
8:53 PM 30.9°F 27.0°F 85% 30.25 in 3.0 miles Variable 3.5 mph - 0.00 in Snow Light Snow
9:53 PM 32.0°F 28.0°F 85% 30.26 in 3.0 miles Calm Calm - 0.00 in   Overcast
10:07 PM 30.2°F 28.4°F 93% 30.20 in 2.5 miles Calm Calm - N/A   Overcast
10:19 PM 30.2°F 28.4°F 93% 30.19 in 2.0 miles Calm Calm - N/A   Overcast
10:31 PM 30.2°F 28.4°F 93% 30.19 in 2.0 miles Calm Calm - N/A   Overcast
10:53 PM 30.9°F 28.0°F 89% 30.26 in 2.5 miles ENE 3.5 mph - N/A   Overcast
11:53 PM 30.9°F 28.0°F 89% 30.24 in 3.0 miles Calm Calm - 0.00 in   Overcast
Moon Phase
Dec. 09 Dec. 13 Dec. 20 Dec. 28 Jan. 04
Sunrise:07:26 AM (PST) Moon Rise:02:51 AM (PST)12/9
Sunset:03:57 PM (PST) Moon Set:01:18 PM (PST)12/9

Copyright © 2014 The Weather Underground, Inc.